Regional Weather Roundup
Issued by NWS Charleston, WV

Home | Current Version | Previous Version | Graphics & Text | Print | Product List | Glossary On
Versions: 1 2 3 4 5 6 7 8 9 10 11 12 13 14 15 16 17 18 19 20 21 22 23 24 25 26 27 28 29 30 31 32 33 34 35 36 37 38 39 40 41 42 43 44 45 46 47 48 49 50
000
ASUS41 KRLX 261110
RWRRLX
West Virginia Regional Weather Roundup
National Weather Service Charleston WV
700 AM EDT MON SEP 26 2016

Note: "fair" indicates few or no clouds below 12,000 feet with no
significant weather and/or obstructions to visibility.

WVZ003-261200-
Northern Panhandle of West Virginia

CITY           SKY/WX    TMP DP  RH WIND       PRES   REMARKS
WHEELING       CLEAR     59  48  67 S3        29.99S
$$

WVZ009-261200-
Northwest West Virginia

CITY           SKY/WX    TMP DP  RH WIND       PRES   REMARKS
PARKERSBURG    CLEAR     56  53  90 CALM      30.01S
$$

WVZ006-261200-
Western West Virginia

CITY           SKY/WX    TMP DP  RH WIND       PRES   REMARKS
HUNTINGTON     CLEAR     63  61  93 VRB3      29.97F
$$

WVZ015-261200-
West Central West Virginia

CITY           SKY/WX    TMP DP  RH WIND       PRES   REMARKS
CHARLESTON     PTCLDY    60  58  92 CALM      30.00S
$$

WVZ022-031-261200-
North Central West Virginia

CITY           SKY/WX    TMP DP  RH WIND       PRES   REMARKS
CLARKSBURG     CLEAR     52  50  93 CALM      30.02F
MORGANTOWN     CLEAR     57  50  77 CALM      30.03F
$$

WVZ025-035-042-045-261200-
Southern West Virginia

CITY           SKY/WX    TMP DP  RH WIND       PRES   REMARKS
BECKLEY        PTCLDY    64  62  93 SE8       30.10S
LOGAN          CLOUDY    70  64  83 CALM      30.03S
BLUEFIELD      CLEAR     64  61  90 SE3       30.12S
LEWISBURG      CLOUDY    64  62  93 CALM      30.12S
$$

WVZ047-261200-
Northern Mountains of West Virginia

CITY           SKY/WX    TMP DP  RH WIND       PRES   REMARKS
ELKINS         PTCLDY    49  46  90 CALM      30.09S
$$

WVZ052-261200-
Eastern Panhandle of West Virginia

CITY           SKY/WX    TMP DP  RH WIND       PRES   REMARKS
MARTINSBURG    CLOUDY    59  54  83 CALM      30.10S
PETERSBURG     CLEAR     57  51  82 W3        30.09S
$$



USA.gov is the U.S. government's official web portal to all federal, state and local government web resources and services.